• In Belgium
  • List of Countries
  • For 7 days
  • Water Temperature
  • Satellite Maps
  • Weather Map
  • Weather Widgets
  • user-avatar
    Login

    Hourly Weather Sowiniec

    Today, 20 July, Friday

    Time Temperature Precipitation Wind Pressure Humidity
    00:00 +18°C° 0 mm 4 mps 736 mmHg 93%
    01:00 +18°C° 0 mm 4 mps 736 mmHg 94%
    02:00 +18°C° 0 mm 3 mps 736 mmHg 95%
    03:00 +17°C° 0 mm 4 mps 736 mmHg 96%
    04:00 +17°C° 0 mm 4 mps 736 mmHg 96%
    05:00 +17°C° 0 mm 4 mps 736 mmHg 96%
    06:00 +18°C° 0 mm 4 mps 736 mmHg 93%
    07:00 +19°C° 0 mm 4 mps 736 mmHg 91%
    08:00 +20°C° 0 mm 5 mps 736 mmHg 88%
    09:00 +21°C° 0.3 mm 5 mps 737 mmHg 84%
    10:00 +22°C° 0.3 mm 5 mps 737 mmHg 80%
    11:00 +23°C° 0.3 mm 5 mps 737 mmHg 76%
    12:00 +25°C° 0.7 mm 5 mps 737 mmHg 75%
    13:00 +24°C° 0.7 mm 6 mps 736 mmHg 73%
    14:00 +26°C° 0.7 mm 6 mps 736 mmHg 72%
    15:00 +26°C° 0.5 mm 6 mps 736 mmHg 72%
    16:00 +26°C° 0.5 mm 6 mps 736 mmHg 73%
    17:00 +25°C° 0.5 mm 5 mps 736 mmHg 73%
    18:00 +23°C° 0.2 mm 5 mps 736 mmHg 77%
    19:00 +22°C° 0.2 mm 4 mps 736 mmHg 80%
    20:00 +21°C° 0.2 mm 3 mps 736 mmHg 84%
    21:00 +20°C° 0 mm 3 mps 736 mmHg 85%
    22:00 +20°C° 0 mm 3 mps 737 mmHg 87%
    23:00 +19°C° 0 mm 3 mps 737 mmHg 89%

    Tomorrow, 21 July, Saturday

    Time Temperature Precipitation Wind Pressure Humidity
    00:00 +19°C° 0 mm 3 mps 737 mmHg 91%
    01:00 +18°C° 0 mm 3 mps 737 mmHg 93%
    02:00 +18°C° 0 mm 3 mps 737 mmHg 94%
    03:00 +18°C° 0 mm 3 mps 737 mmHg 95%
    04:00 +17°C° 0 mm 3 mps 737 mmHg 96%
    05:00 +17°C° 0 mm 3 mps 737 mmHg 97%
    06:00 +18°C° 0 mm 3 mps 737 mmHg 94%
    07:00 +19°C° 0 mm 3 mps 738 mmHg 91%
    08:00 +20°C° 0 mm 4 mps 738 mmHg 88%
    09:00 +21°C° 0.2 mm 4 mps 738 mmHg 82%
    10:00 +23°C° 0.2 mm 4 mps 738 mmHg 77%
    11:00 +25°C° 0.2 mm 4 mps 738 mmHg 71%
    12:00 +25°C° 0.3 mm 4 mps 738 mmHg 68%
    13:00 +26°C° 0.3 mm 4 mps 738 mmHg 65%
    14:00 +27°C° 0.3 mm 4 mps 738 mmHg 62%
    15:00 +27°C° 0.4 mm 3 mps 737 mmHg 64%
    16:00 +26°C° 0.4 mm 3 mps 737 mmHg 66%
    17:00 +26°C° 0.4 mm 3 mps 737 mmHg 67%
    18:00 +25°C° 0.4 mm 3 mps 737 mmHg 72%
    19:00 +23°C° 0.4 mm 2 mps 737 mmHg 77%
    20:00 +21°C° 0.4 mm 2 mps 737 mmHg 81%
    21:00 +20°C° 0 mm 2 mps 738 mmHg 82%
    22:00 +19°C° 0 mm 2 mps 738 mmHg 82%
    23:00 +18°C° 0 mm 2 mps 738 mmHg 83%

    Day after tomorrow, 22 July, Sunday

    Time Temperature Precipitation Wind Pressure Humidity
    00:00 +17°C° 0 mm 2 mps 738 mmHg 83%
    01:00 +17°C° 0 mm 2 mps 738 mmHg 83%
    02:00 +16°C° 0 mm 2 mps 737 mmHg 83%
    03:00 +16°C° 0 mm 2 mps 737 mmHg 84%
    04:00 +16°C° 0 mm 1 mps 737 mmHg 84%
    05:00 +15°C° 0 mm 1 mps 737 mmHg 85%
    06:00 +17°C° 0 mm 2 mps 737 mmHg 81%
    07:00 +19°C° 0 mm 2 mps 737 mmHg 78%
    08:00 +20°C° 0 mm 2 mps 738 mmHg 74%
    09:00 +23°C° 0 mm 2 mps 738 mmHg 69%
    10:00 +24°C° 0 mm 2 mps 738 mmHg 63%
    11:00 +25°C° 0 mm 2 mps 738 mmHg 58%
    12:00 +26°C° 0 mm 2 mps 737 mmHg 56%
    13:00 +27°C° 0 mm 2 mps 737 mmHg 54%
    14:00 +27°C° 0 mm 2 mps 737 mmHg 52%
    15:00 +27°C° 0 mm 2 mps 737 mmHg 53%
    16:00 +27°C° 0 mm 2 mps 736 mmHg 54%
    17:00 +27°C° 0 mm 2 mps 736 mmHg 55%
    18:00 +26°C° 0 mm 1 mps 736 mmHg 61%
    19:00 +24°C° 0 mm 1 mps 736 mmHg 67%
    20:00 +23°C° 0 mm 1 mps 736 mmHg 73%
    21:00 +22°C° 0 mm 1 mps 736 mmHg 77%
    22:00 +21°C° 0 mm 1 mps 736 mmHg 80%
    23:00 +20°C° 0 mm 1 mps 736 mmHg 84%

    23 July, Monday

    Time Temperature Precipitation Wind Pressure Humidity
    00:00 +19°C° 0 mm 1 mps 736 mmHg 85%
    01:00 +19°C° 0 mm 1 mps 736 mmHg 86%
    02:00 +19°C° 0 mm 1 mps 736 mmHg 88%
    03:00 +18°C° 0 mm 1 mps 736 mmHg 89%
    04:00 +18°C° 0 mm 1 mps 736 mmHg 90%
    05:00 +16°C° 0 mm 0 mps 736 mmHg 92%
    06:00 +19°C° 0 mm 1 mps 736 mmHg 87%
    07:00 +21°C° 0 mm 1 mps 737 mmHg 81%
    08:00 +23°C° 0 mm 1 mps 737 mmHg 76%
    09:00 +24°C° 0.3 mm 1 mps 737 mmHg 72%
    10:00 +25°C° 0.3 mm 2 mps 737 mmHg 68%
    11:00 +26°C° 0.3 mm 2 mps 737 mmHg 63%
    12:00 +27°C° 0.4 mm 2 mps 737 mmHg 64%
    13:00 +27°C° 0.4 mm 2 mps 736 mmHg 64%
    14:00 +27°C° 0.4 mm 3 mps 736 mmHg 64%
    15:00 +27°C° 0.6 mm 3 mps 736 mmHg 67%
    16:00 +26°C° 0.6 mm 3 mps 736 mmHg 69%
    17:00 +26°C° 0.6 mm 3 mps 736 mmHg 71%
    18:00 +25°C° 0.1 mm 2 mps 736 mmHg 74%
    19:00 +24°C° 0.1 mm 2 mps 736 mmHg 77%
    20:00 +23°C° 0.1 mm 2 mps 737 mmHg 80%
    21:00 +21°C° 0.2 mm 2 mps 737 mmHg 80%
    22:00 +20°C° 0.2 mm 2 mps 737 mmHg 80%
    23:00 +20°C° 0.2 mm 2 mps 737 mmHg 81%

    24 July, Tuesday

    Time Temperature Precipitation Wind Pressure Humidity
    00:00 +19°C° 0 mm 2 mps 737 mmHg 80%
    01:00 +19°C° 0 mm 2 mps 737 mmHg 80%
    02:00 +19°C° 0 mm 2 mps 737 mmHg 80%
    03:00 +18°C° 0.3 mm 2 mps 737 mmHg 82%
    04:00 +18°C° 0.3 mm 2 mps 737 mmHg 84%
    05:00 +19°C° 0.3 mm 1 mps 737 mmHg 86%
    06:00 +19°C° 0.3 mm 1 mps 738 mmHg 85%
    07:00 +20°C° 0.3 mm 1 mps 738 mmHg 83%
    08:00 +21°C° 0.3 mm 1 mps 738 mmHg 81%
    09:00 +22°C° 0.1 mm 1 mps 738 mmHg 75%
    10:00 +23°C° 0.1 mm 1 mps 738 mmHg 68%
    11:00 +25°C° 0.1 mm 2 mps 738 mmHg 62%
    12:00 +25°C° 0.1 mm 2 mps 738 mmHg 59%
    13:00 +26°C° 0.1 mm 2 mps 738 mmHg 57%
    14:00 +26°C° 0.1 mm 2 mps 738 mmHg 54%
    15:00 +26°C° 0 mm 3 mps 738 mmHg 56%
    16:00 +26°C° 0 mm 3 mps 738 mmHg 58%
    17:00 +25°C° 0 mm 3 mps 738 mmHg 60%
    18:00 +24°C° 0 mm 3 mps 738 mmHg 67%
    19:00 +21°C° 0 mm 2 mps 737 mmHg 74%
    20:00 +19°C° 0 mm 2 mps 737 mmHg 80%
    21:00 +18°C° 0 mm 2 mps 737 mmHg 83%
    22:00 +18°C° 0 mm 1 mps 737 mmHg 86%
    23:00 +16°C° 0 mm 1 mps 737 mmHg 89%

    25 July, Wednesday

    Time Temperature Precipitation Wind Pressure Humidity
    00:00 +16°C° 0 mm 1 mps 737 mmHg 90%
    01:00 +16°C° 0 mm 1 mps 737 mmHg 90%
    02:00 +15°C° 0 mm 1 mps 737 mmHg 91%
    03:00 +15°C° 0 mm 1 mps 737 mmHg 92%
    04:00 +15°C° 0 mm 1 mps 738 mmHg 92%
    05:00 +14°C° 0 mm 0 mps 738 mmHg 93%
    06:00 +18°C° 0 mm 1 mps 738 mmHg 88%
    07:00 +19°C° 0 mm 1 mps 738 mmHg 83%
    08:00 +21°C° 0 mm 1 mps 738 mmHg 78%
    09:00 +22°C° 0.1 mm 1 mps 738 mmHg 74%
    10:00 +23°C° 0.1 mm 1 mps 738 mmHg 70%
    11:00 +25°C° 0.1 mm 1 mps 738 mmHg 66%
    12:00 +25°C° 0.3 mm 1 mps 738 mmHg 65%
    13:00 +26°C° 0.3 mm 1 mps 738 mmHg 64%
    14:00 +27°C° 0.3 mm 1 mps 738 mmHg 62%
    15:00 +26°C° 0.6 mm 1 mps 738 mmHg 64%
    16:00 +26°C° 0.6 mm 1 mps 738 mmHg 66%
    17:00 +26°C° 0.6 mm 2 mps 738 mmHg 68%
    18:00 +24°C° 0.5 mm 1 mps 738 mmHg 73%
    19:00 +23°C° 0.5 mm 1 mps 738 mmHg 79%
    20:00 +22°C° 0.5 mm 1 mps 738 mmHg 85%
    21:00 +21°C° 0.1 mm 1 mps 738 mmHg 87%
    22:00 +18°C° 0.1 mm 0 mps 738 mmHg 89%
    23:00 +17°C° 0.1 mm 0 mps 738 mmHg 90%
    Show more